owner,sensor,date,latitude,longitude,vertical_datum,sea_water_temperature,qcFlag 
COMPS,ioos:station:USF.COMPS:C10:1,2014-03-01T00:05:00Z,27.1690,-82.9260,-1.0,19.446,2 
COMPS,ioos:station:USF.COMPS:C10:1,2014-03-01T00:35:00Z,27.1690,-82.9260,-1.0,19.394,2 
COMPS,ioos:station:USF.COMPS:C10:1,2014-03-01T01:05:00Z,27.1690,-82.9260,-1.0,19.394,2 
COMPS,ioos:station:USF.COMPS:C10:1,2014-03-01T01:35:00Z,27.1690,-82.9260,-1.0,19.361,2 
COMPS,ioos:station:USF.COMPS:C10:1,2014-03-01T02:05:00Z,27.1690,-82.9260,-1.0,19.336,2 
COMPS,ioos:station:USF.COMPS:C10:1,2014-03-01T02:35:00Z,27.1690,-82.9260,-1.0,19.324,2 
COMPS,ioos:station:USF.COMPS:C10:1,2014-03-01T03:05:00Z,27.1690,-82.9260,-1.0,19.299,2 
COMPS,ioos:station:USF.COMPS:C10:1,2014-03-01T03:35:00Z,27.1690,-82.9260,-1.0,19.299,2 
COMPS,ioos:station:USF.COMPS:C10:1,2014-03-01T04:05:00Z,27.1690,-82.9260,-1.0,19.306,2 
COMPS,ioos:station:USF.COMPS:C10:1,2014-03-01T04:35:00Z,27.1690,-82.9260,-1.0,19.276,2 
COMPS,ioos:station:USF.COMPS:C10:1,2014-03-01T05:05:00Z,27.1690,-82.9260,-1.0,19.25,2 
COMPS,ioos:station:USF.COMPS:C10:1,2014-03-01T05:35:00Z,27.1690,-82.9260,-1.0,19.213,2 
COMPS,ioos:station:USF.COMPS:C10:1,2014-03-01T06:05:00Z,27.1690,-82.9260,-1.0,19.166,2 
COMPS,ioos:station:USF.COMPS:C10:1,2014-03-01T06:35:00Z,27.1690,-82.9260,-1.0,19.177,2 
COMPS,ioos:station:USF.COMPS:C10:1,2014-03-01T07:05:00Z,27.1690,-82.9260,-1.0,19.156,2 
COMPS,ioos:station:USF.COMPS:C10:1,2014-03-01T07:35:00Z,27.1690,-82.9260,-1.0,19.101,2 
COMPS,ioos:station:USF.COMPS:C10:1,2014-03-01T08:05:00Z,27.1690,-82.9260,-1.0,19.103,2 
COMPS,ioos:station:USF.COMPS:C10:1,2014-03-01T08:35:00Z,27.1690,-82.9260,-1.0,19.088,2 
COMPS,ioos:station:USF.COMPS:C10:1,2014-03-01T09:05:00Z,27.1690,-82.9260,-1.0,19.096,2 
COMPS,ioos:station:USF.COMPS:C10:1,2014-03-01T09:35:00Z,27.1690,-82.9260,-1.0,19.057,2 
COMPS,ioos:station:USF.COMPS:C10:1,2014-03-01T10:05:00Z,27.1690,-82.9260,-1.0,19.064,2 
COMPS,ioos:station:USF.COMPS:C10:1,2014-03-01T10:35:00Z,27.1690,-82.9260,-1.0,19.06,2 
COMPS,ioos:station:USF.COMPS:C10:1,2014-03-01T11:05:00Z,27.1690,-82.9260,-1.0,19.05,2 
COMPS,ioos:station:USF.COMPS:C10:1,2014-03-01T11:35:00Z,27.1690,-82.9260,-1.0,19.058,2 
COMPS,ioos:station:USF.COMPS:C10:1,2014-03-01T12:05:00Z,27.1690,-82.9260,-1.0,19.028,2 
COMPS,ioos:station:USF.COMPS:C10:1,2014-03-01T12:35:00Z,27.1690,-82.9260,-1.0,19.032,2 
COMPS,ioos:station:USF.COMPS:C10:1,2014-03-01T13:05:00Z,27.1690,-82.9260,-1.0,19.019,2 
COMPS,ioos:station:USF.COMPS:C10:1,2014-03-01T13:35:00Z,27.1690,-82.9260,-1.0,19.017,2 
COMPS,ioos:station:USF.COMPS:C10:1,2014-03-01T14:05:00Z,27.1690,-82.9260,-1.0,19.029,2 
COMPS,ioos:station:USF.COMPS:C10:1,2014-03-01T14:35:00Z,27.1690,-82.9260,-1.0,19.067,2 
COMPS,ioos:station:USF.COMPS:C10:1,2014-03-01T15:05:00Z,27.1690,-82.9260,-1.0,19.144,2 
COMPS,ioos:station:USF.COMPS:C10:1,2014-03-01T15:35:00Z,27.1690,-82.9260,-1.0,19.19,2 
COMPS,ioos:station:USF.COMPS:C10:1,2014-03-01T16:05:00Z,27.1690,-82.9260,-1.0,19.223,2 
COMPS,ioos:station:USF.COMPS:C10:1,2014-03-01T16:35:00Z,27.1690,-82.9260,-1.0,19.336,2 
COMPS,ioos:station:USF.COMPS:C10:1,2014-03-01T17:05:00Z,27.1690,-82.9260,-1.0,19.449,2 
COMPS,ioos:station:USF.COMPS:C10:1,2014-03-01T17:35:00Z,27.1690,-82.9260,-1.0,19.551,2 
COMPS,ioos:station:USF.COMPS:C10:1,2014-03-01T18:05:00Z,27.1690,-82.9260,-1.0,19.591,2 
COMPS,ioos:station:USF.COMPS:C10:1,2014-03-01T18:35:00Z,27.1690,-82.9260,-1.0,19.681,2 
COMPS,ioos:station:USF.COMPS:C10:1,2014-03-01T19:05:00Z,27.1690,-82.9260,-1.0,19.734,2 
COMPS,ioos:station:USF.COMPS:C10:1,2014-03-01T19:35:00Z,27.1690,-82.9260,-1.0,19.824,2 
COMPS,ioos:station:USF.COMPS:C10:1,2014-03-01T20:05:00Z,27.1690,-82.9260,-1.0,19.887,2 
COMPS,ioos:station:USF.COMPS:C10:1,2014-03-01T20:35:00Z,27.1690,-82.9260,-1.0,19.842,2 
COMPS,ioos:station:USF.COMPS:C10:1,2014-03-01T21:05:00Z,27.1690,-82.9260,-1.0,19.843,2 
COMPS,ioos:station:USF.COMPS:C10:1,2014-03-01T21:35:00Z,27.1690,-82.9260,-1.0,19.821,2 
COMPS,ioos:station:USF.COMPS:C10:1,2014-03-01T22:05:00Z,27.1690,-82.9260,-1.0,19.742,2 
COMPS,ioos:station:USF.COMPS:C10:1,2014-03-01T22:35:00Z,27.1690,-82.9260,-1.0,19.698,2 
COMPS,ioos:station:USF.COMPS:C10:1,2014-03-02T00:05:00Z,27.1690,-82.9260,-1.0,19.503,2 
COMPS,ioos:station:USF.COMPS:C10:1,2014-03-02T00:35:00Z,27.1690,-82.9260,-1.0,19.452,2 
COMPS,ioos:station:USF.COMPS:C10:1,2014-03-02T01:05:00Z,27.1690,-82.9260,-1.0,19.425,2 
COMPS,ioos:station:USF.COMPS:C10:1,2014-03-02T01:35:00Z,27.1690,-82.9260,-1.0,19.386,2 
COMPS,ioos:station:USF.COMPS:C10:1,2014-03-02T02:05:00Z,27.1690,-82.9260,-1.0,19.354,2 
COMPS,ioos:station:USF.COMPS:C10:1,2014-03-02T02:35:00Z,27.1690,-82.9260,-1.0,19.328,2 
COMPS,ioos:station:USF.COMPS:C10:1,2014-03-02T03:05:00Z,27.1690,-82.9260,-1.0,19.321,2 
COMPS,ioos:station:USF.COMPS:C10:1,2014-03-02T03:35:00Z,27.1690,-82.9260,-1.0,19.336,2 
COMPS,ioos:station:USF.COMPS:C10:1,2014-03-02T04:05:00Z,27.1690,-82.9260,-1.0,19.331,2 
COMPS,ioos:station:USF.COMPS:C10:1,2014-03-02T04:35:00Z,27.1690,-82.9260,-1.0,19.326,2 
COMPS,ioos:station:USF.COMPS:C10:1,2014-03-02T05:05:00Z,27.1690,-82.9260,-1.0,19.313,2 
COMPS,ioos:station:USF.COMPS:C10:1,2014-03-02T05:35:00Z,27.1690,-82.9260,-1.0,19.297,2 
COMPS,ioos:station:USF.COMPS:C10:1,2014-03-02T06:05:00Z,27.1690,-82.9260,-1.0,19.272,2 
COMPS,ioos:station:USF.COMPS:C10:1,2014-03-02T06:35:00Z,27.1690,-82.9260,-1.0,19.262,2 
COMPS,ioos:station:USF.COMPS:C10:1,2014-03-02T07:05:00Z,27.1690,-82.9260,-1.0,19.251,2 
COMPS,ioos:station:USF.COMPS:C10:1,2014-03-02T07:35:00Z,27.1690,-82.9260,-1.0,19.244,2 
COMPS,ioos:station:USF.COMPS:C10:1,2014-03-02T08:05:00Z,27.1690,-82.9260,-1.0,19.238,2 
COMPS,ioos:station:USF.COMPS:C10:1,2014-03-02T08:35:00Z,27.1690,-82.9260,-1.0,19.213,2 
COMPS,ioos:station:USF.COMPS:C10:1,2014-03-02T09:05:00Z,27.1690,-82.9260,-1.0,19.184,2 
COMPS,ioos:station:USF.COMPS:C10:1,2014-03-02T09:35:00Z,27.1690,-82.9260,-1.0,19.189,2 
COMPS,ioos:station:USF.COMPS:C10:1,2014-03-02T10:05:00Z,27.1690,-82.9260,-1.0,19.172,2 
COMPS,ioos:station:USF.COMPS:C10:1,2014-03-02T10:35:00Z,27.1690,-82.9260,-1.0,19.152,2 
COMPS,ioos:station:USF.COMPS:C10:1,2014-03-02T11:05:00Z,27.1690,-82.9260,-1.0,19.164,2 
COMPS,ioos:station:USF.COMPS:C10:1,2014-03-02T11:35:00Z,27.1690,-82.9260,-1.0,19.172,2 
COMPS,ioos:station:USF.COMPS:C10:1,2014-03-02T12:05:00Z,27.1690,-82.9260,-1.0,19.153,2 
COMPS,ioos:station:USF.COMPS:C10:1,2014-03-02T12:35:00Z,27.1690,-82.9260,-1.0,19.159,2 
COMPS,ioos:station:USF.COMPS:C10:1,2014-03-02T13:05:00Z,27.1690,-82.9260,-1.0,19.162,2 
COMPS,ioos:station:USF.COMPS:C10:1,2014-03-02T13:35:00Z,27.1690,-82.9260,-1.0,19.166,2 
COMPS,ioos:station:USF.COMPS:C10:1,2014-03-02T14:05:00Z,27.1690,-82.9260,-1.0,19.165,2 
COMPS,ioos:station:USF.COMPS:C10:1,2014-03-02T14:35:00Z,27.1690,-82.9260,-1.0,19.159,2 
COMPS,ioos:station:USF.COMPS:C10:1,2014-03-02T15:05:00Z,27.1690,-82.9260,-1.0,19.149,2 
COMPS,ioos:station:USF.COMPS:C10:1,2014-03-02T15:35:00Z,27.1690,-82.9260,-1.0,19.198,2 
COMPS,ioos:station:USF.COMPS:C10:1,2014-03-02T16:05:00Z,27.1690,-82.9260,-1.0,19.234,2 
COMPS,ioos:station:USF.COMPS:C10:1,2014-03-02T16:35:00Z,27.1690,-82.9260,-1.0,19.279,2 
COMPS,ioos:station:USF.COMPS:C10:1,2014-03-02T17:05:00Z,27.1690,-82.9260,-1.0,19.338,2 
COMPS,ioos:station:USF.COMPS:C10:1,2014-03-02T17:35:00Z,27.1690,-82.9260,-1.0,19.492,2 
COMPS,ioos:station:USF.COMPS:C10:1,2014-03-02T18:05:00Z,27.1690,-82.9260,-1.0,19.693,2 
COMPS,ioos:station:USF.COMPS:C10:1,2014-03-02T18:35:00Z,27.1690,-82.9260,-1.0,19.892,2 
COMPS,ioos:station:USF.COMPS:C10:1,2014-03-02T19:05:00Z,27.1690,-82.9260,-1.0,20.026,2 
COMPS,ioos:station:USF.COMPS:C10:1,2014-03-02T19:35:00Z,27.1690,-82.9260,-1.0,20.036,2 
COMPS,ioos:station:USF.COMPS:C10:1,2014-03-02T20:05:00Z,27.1690,-82.9260,-1.0,20.341,2 
COMPS,ioos:station:USF.COMPS:C10:1,2014-03-02T20:35:00Z,27.1690,-82.9260,-1.0,20.291,2 
COMPS,ioos:station:USF.COMPS:C10:1,2014-03-02T21:05:00Z,27.1690,-82.9260,-1.0,20.296,2 
COMPS,ioos:station:USF.COMPS:C10:1,2014-03-02T21:35:00Z,27.1690,-82.9260,-1.0,20.147,2 
COMPS,ioos:station:USF.COMPS:C10:1,2014-03-02T22:05:00Z,27.1690,-82.9260,-1.0,20.078,2 
COMPS,ioos:station:USF.COMPS:C10:1,2014-03-02T22:35:00Z,27.1690,-82.9260,-1.0,20.049,2 
COMPS,ioos:station:USF.COMPS:C10:1,2014-03-02T23:05:00Z,27.1690,-82.9260,-1.0,19.958,2 
COMPS,ioos:station:USF.COMPS:C10:1,2014-03-02T23:35:00Z,27.1690,-82.9260,-1.0,19.937,2 
COMPS,ioos:station:USF.COMPS:C10:1,2014-03-03T00:05:00Z,27.1690,-82.9260,-1.0,19.874,2 
COMPS,ioos:station:USF.COMPS:C10:1,2014-03-03T00:35:00Z,27.1690,-82.9260,-1.0,19.829,2 
COMPS,ioos:station:USF.COMPS:C10:1,2014-03-03T01:05:00Z,27.1690,-82.9260,-1.0,19.738,2 
COMPS,ioos:station:USF.COMPS:C10:1,2014-03-03T01:35:00Z,27.1690,-82.9260,-1.0,19.716,2 
COMPS,ioos:station:USF.COMPS:C10:1,2014-03-03T02:05:00Z,27.1690,-82.9260,-1.0,19.717,2 
COMPS,ioos:station:USF.COMPS:C10:1,2014-03-03T02:35:00Z,27.1690,-82.9260,-1.0,19.721,2 
COMPS,ioos:station:USF.COMPS:C10:1,2014-03-03T03:05:00Z,27.1690,-82.9260,-1.0,19.712,2 
COMPS,ioos:station:USF.COMPS:C10:1,2014-03-03T03:35:00Z,27.1690,-82.9260,-1.0,19.7,2 
COMPS,ioos:station:USF.COMPS:C10:1,2014-03-03T04:05:00Z,27.1690,-82.9260,-1.0,19.637,2 
COMPS,ioos:station:USF.COMPS:C10:1,2014-03-03T04:35:00Z,27.1690,-82.9260,-1.0,19.623,2 
COMPS,ioos:station:USF.COMPS:C10:1,2014-03-03T05:05:00Z,27.1690,-82.9260,-1.0,19.592,2 
COMPS,ioos:station:USF.COMPS:C10:1,2014-03-03T05:35:00Z,27.1690,-82.9260,-1.0,19.535,2 
COMPS,ioos:station:USF.COMPS:C10:1,2014-03-03T06:05:00Z,27.1690,-82.9260,-1.0,19.524,2 
COMPS,ioos:station:USF.COMPS:C10:1,2014-03-03T06:35:00Z,27.1690,-82.9260,-1.0,19.499,2 
COMPS,ioos:station:USF.COMPS:C10:1,2014-03-03T11:05:00Z,27.1690,-82.9260,-1.0,19.479,2 
COMPS,ioos:station:USF.COMPS:C10:1,2014-03-03T11:35:00Z,27.1690,-82.9260,-1.0,19.488,2 
COMPS,ioos:station:USF.COMPS:C10:1,2014-03-03T12:05:00Z,27.1690,-82.9260,-1.0,19.437,2 
COMPS,ioos:station:USF.COMPS:C10:1,2014-03-03T12:35:00Z,27.1690,-82.9260,-1.0,19.408,2 
COMPS,ioos:station:USF.COMPS:C10:1,2014-03-03T13:05:00Z,27.1690,-82.9260,-1.0,19.364,2 
COMPS,ioos:station:USF.COMPS:C10:1,2014-03-03T13:35:00Z,27.1690,-82.9260,-1.0,19.367,2 
COMPS,ioos:station:USF.COMPS:C10:1,2014-03-03T14:05:00Z,27.1690,-82.9260,-1.0,19.359,2 
COMPS,ioos:station:USF.COMPS:C10:1,2014-03-03T14:35:00Z,27.1690,-82.9260,-1.0,19.386,2 
COMPS,ioos:station:USF.COMPS:C10:1,2014-03-03T15:05:00Z,27.1690,-82.9260,-1.0,19.504,2 
COMPS,ioos:station:USF.COMPS:C10:1,2014-03-03T15:35:00Z,27.1690,-82.9260,-1.0,19.586,2 
COMPS,ioos:station:USF.COMPS:C10:1,2014-03-03T16:05:00Z,27.1690,-82.9260,-1.0,19.622,2 
COMPS,ioos:station:USF.COMPS:C10:1,2014-03-03T16:35:00Z,27.1690,-82.9260,-1.0,19.797,2 
COMPS,ioos:station:USF.COMPS:C10:1,2014-03-03T17:05:00Z,27.1690,-82.9260,-1.0,19.985,2 
COMPS,ioos:station:USF.COMPS:C10:1,2014-03-03T17:35:00Z,27.1690,-82.9260,-1.0,20.037,2 
COMPS,ioos:station:USF.COMPS:C10:1,2014-03-03T18:05:00Z,27.1690,-82.9260,-1.0,20.1,2 
COMPS,ioos:station:USF.COMPS:C10:1,2014-03-03T18:35:00Z,27.1690,-82.9260,-1.0,20.281,2 
COMPS,ioos:station:USF.COMPS:C10:1,2014-03-03T19:05:00Z,27.1690,-82.9260,-1.0,20.258,2 
COMPS,ioos:station:USF.COMPS:C10:1,2014-03-03T19:35:00Z,27.1690,-82.9260,-1.0,20.328,2 
COMPS,ioos:station:USF.COMPS:C10:1,2014-03-03T20:05:00Z,27.1690,-82.9260,-1.0,20.333,2 
COMPS,ioos:station:USF.COMPS:C10:1,2014-03-03T20:35:00Z,27.1690,-82.9260,-1.0,20.346,2 
COMPS,ioos:station:USF.COMPS:C10:1,2014-03-03T21:05:00Z,27.1690,-82.9260,-1.0,20.434,2 
COMPS,ioos:station:USF.COMPS:C10:1,2014-03-03T21:35:00Z,27.1690,-82.9260,-1.0,20.445,2 
COMPS,ioos:station:USF.COMPS:C10:1,2014-03-03T22:05:00Z,27.1690,-82.9260,-1.0,20.564,2 
COMPS,ioos:station:USF.COMPS:C10:1,2014-03-03T22:35:00Z,27.1690,-82.9260,-1.0,20.379,2 
COMPS,ioos:station:USF.COMPS:C10:1,2014-03-03T23:05:00Z,27.1690,-82.9260,-1.0,20.723,2 
COMPS,ioos:station:USF.COMPS:C10:1,2014-03-03T23:35:00Z,27.1690,-82.9260,-1.0,20.644,2 
COMPS,ioos:station:USF.COMPS:C10:1,2014-03-04T00:05:00Z,27.1690,-82.9260,-1.0,20.623,2 
COMPS,ioos:station:USF.COMPS:C10:1,2014-03-04T00:35:00Z,27.1690,-82.9260,-1.0,20.589,2 
COMPS,ioos:station:USF.COMPS:C10:1,2014-03-04T01:05:00Z,27.1690,-82.9260,-1.0,20.518,2 
COMPS,ioos:station:USF.COMPS:C10:1,2014-03-04T01:35:00Z,27.1690,-82.9260,-1.0,20.49,2 
COMPS,ioos:station:USF.COMPS:C10:1,2014-03-04T02:05:00Z,27.1690,-82.9260,-1.0,20.475,2 
COMPS,ioos:station:USF.COMPS:C10:1,2014-03-04T02:35:00Z,27.1690,-82.9260,-1.0,20.507,2 
COMPS,ioos:station:USF.COMPS:C10:1,2014-03-04T03:05:00Z,27.1690,-82.9260,-1.0,20.489,2 
COMPS,ioos:station:USF.COMPS:C10:1,2014-03-04T03:35:00Z,27.1690,-82.9260,-1.0,20.455,2 
COMPS,ioos:station:USF.COMPS:C10:1,2014-03-04T04:05:00Z,27.1690,-82.9260,-1.0,20.482,2 
COMPS,ioos:station:USF.COMPS:C10:1,2014-03-04T04:35:00Z,27.1690,-82.9260,-1.0,20.539,2 
COMPS,ioos:station:USF.COMPS:C10:1,2014-03-04T05:05:00Z,27.1690,-82.9260,-1.0,20.497,2 
COMPS,ioos:station:USF.COMPS:C10:1,2014-03-04T05:35:00Z,27.1690,-82.9260,-1.0,20.478,2 
COMPS,ioos:station:USF.COMPS:C10:1,2014-03-04T06:05:00Z,27.1690,-82.9260,-1.0,20.447,2 
COMPS,ioos:station:USF.COMPS:C10:1,2014-03-04T06:35:00Z,27.1690,-82.9260,-1.0,20.434,2 
COMPS,ioos:station:USF.COMPS:C10:1,2014-03-04T07:05:00Z,27.1690,-82.9260,-1.0,20.421,2 
COMPS,ioos:station:USF.COMPS:C10:1,2014-03-04T07:35:00Z,27.1690,-82.9260,-1.0,20.428,2 
COMPS,ioos:station:USF.COMPS:C10:1,2014-03-04T08:05:00Z,27.1690,-82.9260,-1.0,20.429,2 
COMPS,ioos:station:USF.COMPS:C10:1,2014-03-04T08:35:00Z,27.1690,-82.9260,-1.0,20.439,2 
COMPS,ioos:station:USF.COMPS:C10:1,2014-03-04T09:05:00Z,27.1690,-82.9260,-1.0,20.443,2 
COMPS,ioos:station:USF.COMPS:C10:1,2014-03-04T09:35:00Z,27.1690,-82.9260,-1.0,20.444,2 
COMPS,ioos:station:USF.COMPS:C10:1,2014-03-04T10:05:00Z,27.1690,-82.9260,-1.0,20.392,2 
COMPS,ioos:station:USF.COMPS:C10:1,2014-03-04T10:35:00Z,27.1690,-82.9260,-1.0,20.362,2 
COMPS,ioos:station:USF.COMPS:C10:1,2014-03-04T11:05:00Z,27.1690,-82.9260,-1.0,20.344,2 
COMPS,ioos:station:USF.COMPS:C10:1,2014-03-04T11:35:00Z,27.1690,-82.9260,-1.0,20.375,2 
COMPS,ioos:station:USF.COMPS:C10:1,2014-03-04T12:05:00Z,27.1690,-82.9260,-1.0,20.42,2 
COMPS,ioos:station:USF.COMPS:C10:1,2014-03-04T12:35:00Z,27.1690,-82.9260,-1.0,20.435,2 
COMPS,ioos:station:USF.COMPS:C10:1,2014-03-04T13:05:00Z,27.1690,-82.9260,-1.0,20.424,2 
COMPS,ioos:station:USF.COMPS:C10:1,2014-03-04T13:35:00Z,27.1690,-82.9260,-1.0,20.362,2 
COMPS,ioos:station:USF.COMPS:C10:1,2014-03-04T14:05:00Z,27.1690,-82.9260,-1.0,20.3,2 
COMPS,ioos:station:USF.COMPS:C10:1,2014-03-04T14:35:00Z,27.1690,-82.9260,-1.0,20.26,2 
COMPS,ioos:station:USF.COMPS:C10:1,2014-03-04T15:05:00Z,27.1690,-82.9260,-1.0,20.226,2 
COMPS,ioos:station:USF.COMPS:C10:1,2014-03-04T15:35:00Z,27.1690,-82.9260,-1.0,20.217,2 
COMPS,ioos:station:USF.COMPS:C10:1,2014-03-04T16:05:00Z,27.1690,-82.9260,-1.0,20.204,2 
COMPS,ioos:station:USF.COMPS:C10:1,2014-03-04T16:35:00Z,27.1690,-82.9260,-1.0,20.26,2 
COMPS,ioos:station:USF.COMPS:C10:1,2014-03-04T17:05:00Z,27.1690,-82.9260,-1.0,20.366,2 
COMPS,ioos:station:USF.COMPS:C10:1,2014-03-04T17:35:00Z,27.1690,-82.9260,-1.0,20.445,2 
COMPS,ioos:station:USF.COMPS:C10:1,2014-03-04T18:05:00Z,27.1690,-82.9260,-1.0,20.613,2 
COMPS,ioos:station:USF.COMPS:C10:1,2014-03-04T18:35:00Z,27.1690,-82.9260,-1.0,20.781,2 
COMPS,ioos:station:USF.COMPS:C10:1,2014-03-04T19:05:00Z,27.1690,-82.9260,-1.0,20.827,2 
COMPS,ioos:station:USF.COMPS:C10:1,2014-03-04T19:35:00Z,27.1690,-82.9260,-1.0,21.111,2 
COMPS,ioos:station:USF.COMPS:C10:1,2014-03-04T20:05:00Z,27.1690,-82.9260,-1.0,21.192,2 
COMPS,ioos:station:USF.COMPS:C10:1,2014-03-04T20:35:00Z,27.1690,-82.9260,-1.0,21.311,2 
COMPS,ioos:station:USF.COMPS:C10:1,2014-03-04T21:05:00Z,27.1690,-82.9260,-1.0,21.304,2 
COMPS,ioos:station:USF.COMPS:C10:1,2014-03-04T21:35:00Z,27.1690,-82.9260,-1.0,21.212,2 
COMPS,ioos:station:USF.COMPS:C10:1,2014-03-04T22:05:00Z,27.1690,-82.9260,-1.0,21.298,2 
COMPS,ioos:station:USF.COMPS:C10:1,2014-03-04T22:35:00Z,27.1690,-82.9260,-1.0,21.576,2 
COMPS,ioos:station:USF.COMPS:C10:1,2014-03-04T23:05:00Z,27.1690,-82.9260,-1.0,21.453,2 
COMPS,ioos:station:USF.COMPS:C10:1,2014-03-04T23:35:00Z,27.1690,-82.9260,-1.0,21.197,2 
COMPS,ioos:station:USF.COMPS:C10:1,2014-03-05T15:05:00Z,27.1690,-82.9260,-1.0,19.933,2 
COMPS,ioos:station:USF.COMPS:C10:1,2014-03-05T15:35:00Z,27.1690,-82.9260,-1.0,19.989,2 
COMPS,ioos:station:USF.COMPS:C10:1,2014-03-05T16:05:00Z,27.1690,-82.9260,-1.0,20.091,2 
COMPS,ioos:station:USF.COMPS:C10:1,2014-03-05T16:35:00Z,27.1690,-82.9260,-1.0,20.226,2 
COMPS,ioos:station:USF.COMPS:C10:1,2014-03-05T17:05:00Z,27.1690,-82.9260,-1.0,20.319,2 
COMPS,ioos:station:USF.COMPS:C10:1,2014-03-05T17:35:00Z,27.1690,-82.9260,-1.0,20.34,2 
COMPS,ioos:station:USF.COMPS:C10:1,2014-03-05T18:05:00Z,27.1690,-82.9260,-1.0,20.445,2 
COMPS,ioos:station:USF.COMPS:C10:1,2014-03-05T18:35:00Z,27.1690,-82.9260,-1.0,20.473,2 
COMPS,ioos:station:USF.COMPS:C10:1,2014-03-05T19:05:00Z,27.1690,-82.9260,-1.0,20.475,2 
COMPS,ioos:station:USF.COMPS:C10:1,2014-03-05T19:35:00Z,27.1690,-82.9260,-1.0,20.661,2 
COMPS,ioos:station:USF.COMPS:C10:1,2014-03-05T20:05:00Z,27.1690,-82.9260,-1.0,20.668,2 
COMPS,ioos:station:USF.COMPS:C10:1,2014-03-05T20:35:00Z,27.1690,-82.9260,-1.0,20.698,2 
COMPS,ioos:station:USF.COMPS:C10:1,2014-03-05T22:05:00Z,27.1690,-82.9260,-1.0,20.453,2 
COMPS,ioos:station:USF.COMPS:C10:1,2014-03-05T22:35:00Z,27.1690,-82.9260,-1.0,20.418,2 
COMPS,ioos:station:USF.COMPS:C10:1,2014-03-06T00:05:00Z,27.1690,-82.9260,-1.0,20.318,2 
COMPS,ioos:station:USF.COMPS:C10:1,2014-03-06T00:35:00Z,27.1690,-82.9260,-1.0,20.287,2 
COMPS,ioos:station:USF.COMPS:C10:1,2014-03-06T01:05:00Z,27.1690,-82.9260,-1.0,20.252,2 
COMPS,ioos:station:USF.COMPS:C10:1,2014-03-06T01:35:00Z,27.1690,-82.9260,-1.0,20.224,2 
COMPS,ioos:station:USF.COMPS:C10:1,2014-03-06T02:05:00Z,27.1690,-82.9260,-1.0,20.179,2 
COMPS,ioos:station:USF.COMPS:C10:1,2014-03-06T02:35:00Z,27.1690,-82.9260,-1.0,20.137,2 
COMPS,ioos:station:USF.COMPS:C10:1,2014-03-06T03:05:00Z,27.1690,-82.9260,-1.0,20.101,2 
COMPS,ioos:station:USF.COMPS:C10:1,2014-03-06T03:35:00Z,27.1690,-82.9260,-1.0,20.083,2 
COMPS,ioos:station:USF.COMPS:C10:1,2014-03-06T04:05:00Z,27.1690,-82.9260,-1.0,20.07,2 
COMPS,ioos:station:USF.COMPS:C10:1,2014-03-06T04:35:00Z,27.1690,-82.9260,-1.0,20.061,2 
COMPS,ioos:station:USF.COMPS:C10:1,2014-03-06T05:05:00Z,27.1690,-82.9260,-1.0,20.058,2 
COMPS,ioos:station:USF.COMPS:C10:1,2014-03-06T05:35:00Z,27.1690,-82.9260,-1.0,20.058,2 
COMPS,ioos:station:USF.COMPS:C10:1,2014-03-06T07:05:00Z,27.1690,-82.9260,-1.0,20.041,2 
COMPS,ioos:station:USF.COMPS:C10:1,2014-03-06T07:35:00Z,27.1690,-82.9260,-1.0,20.03,2 
COMPS,ioos:station:USF.COMPS:C10:1,2014-03-06T08:05:00Z,27.1690,-82.9260,-1.0,20.022,2 
COMPS,ioos:station:USF.COMPS:C10:1,2014-03-06T08:35:00Z,27.1690,-82.9260,-1.0,20.023,2 
COMPS,ioos:station:USF.COMPS:C10:1,2014-03-06T09:05:00Z,27.1690,-82.9260,-1.0,20.019,2 
COMPS,ioos:station:USF.COMPS:C10:1,2014-03-06T09:35:00Z,27.1690,-82.9260,-1.0,20.004,2 
COMPS,ioos:station:USF.COMPS:C10:1,2014-03-06T10:05:00Z,27.1690,-82.9260,-1.0,19.994,2 
COMPS,ioos:station:USF.COMPS:C10:1,2014-03-06T10:35:00Z,27.1690,-82.9260,-1.0,19.971,2 
COMPS,ioos:station:USF.COMPS:C10:1,2014-03-06T11:05:00Z,27.1690,-82.9260,-1.0,19.945,2 
COMPS,ioos:station:USF.COMPS:C10:1,2014-03-06T11:35:00Z,27.1690,-82.9260,-1.0,19.918,2 
COMPS,ioos:station:USF.COMPS:C10:1,2014-03-06T12:05:00Z,27.1690,-82.9260,-1.0,19.915,2 
COMPS,ioos:station:USF.COMPS:C10:1,2014-03-06T12:35:00Z,27.1690,-82.9260,-1.0,19.903,2 
COMPS,ioos:station:USF.COMPS:C10:1,2014-03-06T13:05:00Z,27.1690,-82.9260,-1.0,19.895,2 
COMPS,ioos:station:USF.COMPS:C10:1,2014-03-06T13:35:00Z,27.1690,-82.9260,-1.0,19.948,2 
COMPS,ioos:station:USF.COMPS:C10:1,2014-03-06T14:05:00Z,27.1690,-82.9260,-1.0,19.956,2 
COMPS,ioos:station:USF.COMPS:C10:1,2014-03-06T14:35:00Z,27.1690,-82.9260,-1.0,19.978,2 
COMPS,ioos:station:USF.COMPS:C10:1,2014-03-06T15:05:00Z,27.1690,-82.9260,-1.0,20.019,2 
COMPS,ioos:station:USF.COMPS:C10:1,2014-03-06T15:35:00Z,27.1690,-82.9260,-1.0,20.094,2 
COMPS,ioos:station:USF.COMPS:C10:1,2014-03-06T16:05:00Z,27.1690,-82.9260,-1.0,20.098,2 
COMPS,ioos:station:USF.COMPS:C10:1,2014-03-06T16:35:00Z,27.1690,-82.9260,-1.0,20.182,2 
COMPS,ioos:station:USF.COMPS:C10:1,2014-03-06T17:05:00Z,27.1690,-82.9260,-1.0,20.177,2 
COMPS,ioos:station:USF.COMPS:C10:1,2014-03-06T17:35:00Z,27.1690,-82.9260,-1.0,20.193,2 
COMPS,ioos:station:USF.COMPS:C10:1,2014-03-06T18:05:00Z,27.1690,-82.9260,-1.0,20.129,2 
COMPS,ioos:station:USF.COMPS:C10:1,2014-03-06T18:35:00Z,27.1690,-82.9260,-1.0,20.18,2 
COMPS,ioos:station:USF.COMPS:C10:1,2014-03-06T19:05:00Z,27.1690,-82.9260,-1.0,20.193,2 
COMPS,ioos:station:USF.COMPS:C10:1,2014-03-06T19:35:00Z,27.1690,-82.9260,-1.0,20.175,2 
COMPS,ioos:station:USF.COMPS:C10:1,2014-03-06T20:05:00Z,27.1690,-82.9260,-1.0,20.191,2 
COMPS,ioos:station:USF.COMPS:C10:1,2014-03-06T20:35:00Z,27.1690,-82.9260,-1.0,20.183,2 
COMPS,ioos:station:USF.COMPS:C10:1,2014-03-06T21:05:00Z,27.1690,-82.9260,-1.0,20.198,2 
COMPS,ioos:station:USF.COMPS:C10:1,2014-03-06T21:35:00Z,27.1690,-82.9260,-1.0,20.233,2 
COMPS,ioos:station:USF.COMPS:C10:1,2014-03-06T22:05:00Z,27.1690,-82.9260,-1.0,20.251,2 
COMPS,ioos:station:USF.COMPS:C10:1,2014-03-06T22:35:00Z,27.1690,-82.9260,-1.0,20.268,2 
COMPS,ioos:station:USF.COMPS:C10:1,2014-03-06T23:05:00Z,27.1690,-82.9260,-1.0,20.28,2 
COMPS,ioos:station:USF.COMPS:C10:1,2014-03-06T23:35:00Z,27.1690,-82.9260,-1.0,20.272,2 
COMPS,ioos:station:USF.COMPS:C10:1,2014-03-07T00:05:00Z,27.1690,-82.9260,-1.0,20.243,2 
COMPS,ioos:station:USF.COMPS:C10:1,2014-03-07T00:35:00Z,27.1690,-82.9260,-1.0,20.202,2 
COMPS,ioos:station:USF.COMPS:C10:1,2014-03-07T02:05:00Z,27.1690,-82.9260,-1.0,20.163,2 
COMPS,ioos:station:USF.COMPS:C10:1,2014-03-07T02:35:00Z,27.1690,-82.9260,-1.0,20.165,2 
COMPS,ioos:station:USF.COMPS:C10:1,2014-03-07T03:05:00Z,27.1690,-82.9260,-1.0,20.163,2 
COMPS,ioos:station:USF.COMPS:C10:1,2014-03-07T03:35:00Z,27.1690,-82.9260,-1.0,20.155,2 
COMPS,ioos:station:USF.COMPS:C10:1,2014-03-07T04:05:00Z,27.1690,-82.9260,-1.0,20.16,2 
COMPS,ioos:station:USF.COMPS:C10:1,2014-03-07T04:35:00Z,27.1690,-82.9260,-1.0,20.174,2 
COMPS,ioos:station:USF.COMPS:C10:1,2014-03-07T06:05:00Z,27.1690,-82.9260,-1.0,20.154,2 
COMPS,ioos:station:USF.COMPS:C10:1,2014-03-07T06:35:00Z,27.1690,-82.9260,-1.0,20.163,2 
COMPS,ioos:station:USF.COMPS:C10:1,2014-03-07T07:05:00Z,27.1690,-82.9260,-1.0,20.164,2 
COMPS,ioos:station:USF.COMPS:C10:1,2014-03-07T07:35:00Z,27.1690,-82.9260,-1.0,20.175,2 
COMPS,ioos:station:USF.COMPS:C10:1,2014-03-07T08:05:00Z,27.1690,-82.9260,-1.0,20.161,2 
COMPS,ioos:station:USF.COMPS:C10:1,2014-03-07T08:35:00Z,27.1690,-82.9260,-1.0,20.152,2 
COMPS,ioos:station:USF.COMPS:C10:1,2014-03-07T10:05:00Z,27.1690,-82.9260,-1.0,20.134,2 
COMPS,ioos:station:USF.COMPS:C10:1,2014-03-07T10:35:00Z,27.1690,-82.9260,-1.0,20.125,2 
COMPS,ioos:station:USF.COMPS:C10:1,2014-03-07T11:05:00Z,27.1690,-82.9260,-1.0,20.103,2 
COMPS,ioos:station:USF.COMPS:C10:1,2014-03-07T11:35:00Z,27.1690,-82.9260,-1.0,20.093,2 
COMPS,ioos:station:USF.COMPS:C10:1,2014-03-07T14:05:00Z,27.1690,-82.9260,-1.0,20.015,2 
COMPS,ioos:station:USF.COMPS:C10:1,2014-03-07T14:35:00Z,27.1690,-82.9260,-1.0,20.014,2 
COMPS,ioos:station:USF.COMPS:C10:1,2014-03-07T15:05:00Z,27.1690,-82.9260,-1.0,19.994,2 
COMPS,ioos:station:USF.COMPS:C10:1,2014-03-07T15:35:00Z,27.1690,-82.9260,-1.0,19.977,2 
COMPS,ioos:station:USF.COMPS:C10:1,2014-03-07T16:05:00Z,27.1690,-82.9260,-1.0,19.96,2 
COMPS,ioos:station:USF.COMPS:C10:1,2014-03-07T16:35:00Z,27.1690,-82.9260,-1.0,19.944,2 
COMPS,ioos:station:USF.COMPS:C10:1,2014-03-07T17:05:00Z,27.1690,-82.9260,-1.0,19.967,2 
COMPS,ioos:station:USF.COMPS:C10:1,2014-03-07T17:35:00Z,27.1690,-82.9260,-1.0,19.958,2 
COMPS,ioos:station:USF.COMPS:C10:1,2014-03-07T18:05:00Z,27.1690,-82.9260,-1.0,19.955,2 
COMPS,ioos:station:USF.COMPS:C10:1,2014-03-07T18:35:00Z,27.1690,-82.9260,-1.0,19.96,2 
COMPS,ioos:station:USF.COMPS:C10:1,2014-03-07T19:05:00Z,27.1690,-82.9260,-1.0,19.957,2 
COMPS,ioos:station:USF.COMPS:C10:1,2014-03-07T19:35:00Z,27.1690,-82.9260,-1.0,19.951,2 